Probability
0 0 0 0 1 2 2 2 3 3 3 3 3 3 3 3 3 3 3 3 3 3 3 3 2 1 0 0 0 0 0 0 0 0 0 0 0 0 0 0 0 0 0
0 0 0 0 0 1 1 1 2 3 3 3 3 3 3 3 3 3 3 3 3 3 3 3 3 1 0 0 0 0 0 0 0 0 0 0 0 0 0 0 0 0 0
1 0 0 0 0 0 0 0 1 2 3 3 2 2 2 2 3 3 3 3 3 2 3 3 3 2 0 0 0 0 0 0 0 0 0 0 0 0 0 1 1 0 0
2 1 0 0 0 0 0 1 2 3 2 1 1 1 1 1 1 2 2 2 1 1 1 2 2 1 0 0 0 0 0 0 0 0 0 0 0 0 1 2 2 1 1
3 2 1 0 0 0 0 1 3 3 2 1 0 0 0 0 0 1 1 1 0 0 0 1 1 0 0 0 0 0 0 0 0 0 0 0 0 0 1 2 3 2 2
3 3 2 2 2 1 1 1 2 2 1 0 0 0 0 0 0 0 0 0 0 0 0 0 0 0 0 0 0 0 0 0 0 0 0 0 0 0 1 2 2 2 2
3 3 3 3 3 2 1 1 1 1 0 0 0 0 0 0 0 0 0 0 0 0 0 0 0 0 0 0 0 0 0 0 0 0 0 0 0 0 0 1 1 1 2
4 4 3 3 3 3 2 1 0 0 0 0 0 0 0 0 0 0 0 0 0 0 0 0 0 0 0 0 0 0 0 0 0 0 0 0 0 0 0 0 0 1 1
6 5 4 4 5 5 5 3 1 0 0 0 0 0 0 0 0 0 0 0 0 0 0 0 0 0 0 0 0 0 0 0 0 0 0 0 0 0 0 0 0 0 0
5 5 5 6 7 7 6 5 3 1 0 0 0 0 0 0 0 0 0 0 0 0 0 0 0 0 0 0 0 0 0 0 0 0 0 0 0 0 0 0 0 0 0
2 3 5 7 9 9 8 6 5 2 1 0 0 0 0 0 0 0 0 0 0 0 0 0 0 0 0 0 0 0 0 0 0 0 0 0 0 0 0 0 0 0 0
0 1 2 5 8 9 9 8 6 4 2 1 0 0 0 0 0 0 0 0 0 0 0 0 0 0 0 0 0 0 0 0 0 0 0 0 0 0 0 0 0 0 0
0 0 1 3 5 8 9 9 8 6 5 3 2 0 0 0 0 0 0 0 0 0 0 0 0 0 0 0 0 0 0 0 0 0 0 0 0 0 0 0 0 0 0
0 0 1 2 4 5 7 7 7 6 5 5 4 2 1 1 0 0 0 0 0 0 0 0 0 0 0 0 0 0 0 0 0 0 0 0 0 0 0 0 0 0 0
0 0 1 2 3 3 4 4 4 4 4 4 5 4 4 2 1 0 0 0 0 0 0 0 0 0 0 0 0 0 0 0 0 0 0 0 0 0 0 0 0 0 0
0 0 1 2 3 2 2 3 3 3 3 3 3 3 3 3 2 0 0 0 0 0 0 0 0 0 0 0 0 0 0 0 0 0 0 0 0 0 0 0 0 0 0
0 0 1 2 2 1 1 2 3 3 2 1 1 1 1 2 1 0 0 0 0 0 0 0 0 0 0 0 0 0 0 0 0 0 0 0 0 0 0 0 0 0 0
0 0 0 1 1 0 0 1 3 3 3 2 1 1 0 0 0 0 0 0 0 0 0 0 0 0 0 0 0 0 0 0 0 0 0 0 0 0 0 0 0 0 0
0 0 0 0 0 0 0 1 2 3 3 3 3 2 1 0 0 0 0 1 1 1 0 0 0 0 0 0 0 0 0 0 0 0 0 0 0 0 0 0 0 0 0
0 0 0 0 0 0 0 1 2 3 3 3 3 3 2 1 1 1 1 2 2 2 1 0 0 0 0 0 0 0 0 0 0 0 0 0 0 0 0 0 0 0 0
0 0 0 0 0 0 0 1 3 3 3 3 3 3 3 2 2 2 3 3 3 3 2 0 0 0 0 0 0 0 0 0 0 0 0 0 0 0 0 0 0 0 0
0 0 0 0 0 0 1 2 3 3 3 3 3 3 2 3 3 3 3 3 3 2 1 0 0 0 0 0 0 0 0 0 0 0 0 0 0 0 0 0 0 0 0
0 0 0 0 0 1 2 3 3 3 3 3 3 3 3 3 3 3 3 3 2 1 0 0 0 0 0 0 0 0 0 0 0 0 0 0 0 0 0 0 0 0 0
0 0 0 0 0 2 3 3 3 3 3 3 3 3 3 3 3 3 3 2 1 0 0 0 0 0 0 0 0 0 0 0 0 0 0 0 0 0 0 0 0 0 0
0 0 0 0 0 1 2 3 3 3 3 3 3 3 3 3 3 3 2 1 0 0 0 0 0 0 0 0 0 0 0 0 0 0 0 0 0 0 0 0 0 0 0
0 0 0 0 0 0 1 3 3 3 3 3 3 3 3 3 3 3 1 0 0 0 0 0 0 0 0 0 0 0 0 0 0 0 0 0 0 0 0 0 0 0 0
Wind_Speed
5 4 4 4 4 4 4 4 3 3 3 3 3 3 3 3 3 3 3 3 4 3 3 3 4 3 2 3 3 3 3 3 3 3 2 2 2 2 2 2 2 3 3
5 4 4 4 4 4 4 4 3 3 3 3 3 3 3 3 3 4 4 4 4 4 4 4 4 3 3 3 3 3 3 4 3 3 2 1 2 2 2 2 2 2 2
4 5 4 3 4 4 4 3 3 3 3 3 3 3 3 3 3 4 4 4 4 5 5 5 5 4 3 3 3 3 3 3 3 3 2 1 1 1 1 1 1 1 2
4 4 4 4 4 4 4 3 4 4 4 3 3 3 4 4 4 4 4 4 4 4 4 5 5 5 5 4 3 4 3 3 2 2 2 1 1 1 1 1 1 1 2
4 4 4 3 3 3 3 3 3 3 3 3 3 3 3 3 4 4 4 4 4 4 4 4 5 5 6 5 4 4 4 3 2 2 2 1 2 1 2 2 2 2 2
3 3 2 2 2 2 3 3 2 2 2 2 3 3 3 3 4 5 5 4 4 4 4 4 4 4 5 5 5 5 6 5 4 3 3 3 3 3 2 2 2 1 2
3 3 2 2 2 3 2 2 2 2 2 2 3 3 3 3 4 5 6 4 4 4 4 3 3 3 3 3 3 3 4 5 6 5 5 5 4 4 3 3 3 3 3
3 2 2 2 2 2 2 2 3 2 2 3 3 3 3 3 4 5 5 4 3 4 4 4 4 3 3 3 2 2 2 3 5 5 5 5 4 4 4 4 3 2 2
2 2 2 3 3 2 3 3 2 2 2 3 2 3 3 3 3 3 4 2 2 3 4 4 4 4 4 4 3 2 2 3 3 4 4 4 4 4 3 2 2 2 2
1 2 2 3 3 3 3 3 2 2 3 3 3 3 3 3 4 4 4 3 3 3 2 3 4 4 4 4 4 3 4 3 2 1 1 2 2 2 3 4 4 3 2
1 1 1 2 3 3 3 2 2 2 2 2 2 2 3 3 4 4 5 4 4 3 3 2 3 4 5 5 5 4 5 3 1 1 1 1 1 1 2 2 3 4 4
1 0 1 1 1 1 1 1 1 2 2 2 2 3 2 3 3 3 4 5 4 3 3 3 3 4 5 5 4 4 4 3 1 1 1 1 2 2 2 2 3 4 4
0 0 0 0 1 0 1 1 1 1 1 2 2 3 3 2 2 4 4 5 5 4 3 4 3 3 3 3 3 4 3 2 2 2 2 3 2 3 2 2 2 2 2
0 1 0 0 1 1 0 0 1 1 1 2 2 3 2 2 2 2 2 2 3 3 2 2 2 2 2 2 2 2 2 2 3 3 2 2 2 1 1 1 1 1 1
0 1 0 0 0 0 1 1 1 2 3 3 3 3 3 3 3 3 2 2 2 2 2 1 1 0 1 1 1 1 2 2 2 3 2 2 2 2 2 2 1 1 1
0 1 1 1 0 0 1 2 2 2 2 3 4 3 3 4 3 2 3 2 2 3 3 1 1 1 2 2 2 2 2 2 3 3 3 3 3 3 3 2 2 2 2
1 1 1 1 1 1 1 1 2 3 2 1 1 2 2 2 2 2 2 2 3 5 2 1 1 2 2 2 2 2 3 3 2 2 3 3 3 3 2 2 2 2 3
1 1 1 1 1 1 1 1 1 1 2 2 2 1 0 1 2 2 3 4 2 2 1 1 2 2 2 2 2 2 2 2 2 2 3 3 3 3 3 3 3 3 3
1 1 0 1 1 1 1 1 1 1 1 1 1 1 1 1 2 2 4 2 1 1 2 2 2 2 2 2 2 2 2 2 2 2 2 3 3 3 3 3 3 4 4
1 1 1 1 1 1 1 1 1 1 1 1 1 1 0 1 1 1 1 1 1 2 2 2 2 2 2 2 2 2 2 2 2 2 3 3 3 3 4 4 4 4 4
1 1 1 1 1 1 1 1 1 1 1 1 2 1 2 2 2 2 2 2 2 2 2 2 2 2 2 2 2 2 3 2 2 3 3 3 3 3 3 4 4 4 4
1 1 1 1 1 1 1 1 1 1 2 2 1 1 2 1 1 1 1 2 2 2 2 2 2 2 2 2 2 2 3 3 3 3 3 3 3 3 3 4 4 4 4
1 1 1 1 1 1 1 1 1 1 1 1 1 0 1 1 1 1 1 1 1 1 2 2 2 2 2 2 3 3 4 4 4 4 4 4 4 4 3 4 5 5 5
1 1 1 1 1 1 1 1 1 1 1 1 1 1 1 1 1 1 1 1 1 2 2 2 2 3 4 3 2 3 3 4 4 3 4 4 4 4 3 4 4 5 5
1 1 1 1 1 1 1 1 1 1 2 1 1 1 1 1 1 1 2 1 2 2 2 2 2 3 3 4 4 3 3 3 3 3 3 4 4 4 4 4 4 4 5
1 1 1 1 1 1 1 1 1 1 1 1 1 1 1 1 1 1 1 1 2 2 2 2 2 3 3 3 3 2 2 2 2 2 2 2 3 3 3 3 4 4 4
Wind_Direction
187 188 178 176 176 176 188 203 207 209 205 207 208 205 203 202 198 195 206 199 205 219 216 213 230 230 226 221 207 199 201 195 219 257 255 267 250 256 276 267 263 256 251
185 177 182 177 172 181 197 207 204 209 215 214 208 205 206 202 196 199 215 212 211 220 223 218 233 226 225 226 216 213 211 205 204 238 264 271 262 264 263 269 273 262 262
171 168 172 181 185 198 206 205 202 207 216 214 203 207 213 207 205 208 209 213 216 220 218 216 225 216 224 224 216 216 216 207 199 208 242 252 265 272 283 286 277 283 280
167 166 177 192 198 203 204 201 202 204 209 214 211 213 216 214 213 212 208 209 215 225 225 220 219 212 218 219 218 218 208 196 191 196 223 249 255 257 225 242 275 277 282
161 173 193 197 188 189 196 202 201 204 216 216 212 216 220 217 218 213 210 210 215 229 234 228 221 217 220 215 214 208 196 192 191 199 218 228 242 239 231 223 243 277 279
167 187 187 173 176 195 208 202 197 207 215 210 218 220 226 231 225 214 208 211 215 222 233 239 233 225 229 227 226 214 197 195 199 203 217 226 241 237 223 217 223 249 270
178 176 164 170 191 210 208 196 207 206 200 214 226 220 230 245 227 216 213 203 211 222 227 229 235 233 221 222 234 230 223 217 204 200 217 229 229 221 209 218 216 222 245
174 178 170 179 200 203 190 211 223 210 202 214 226 225 229 249 233 218 211 207 214 224 225 222 222 232 223 207 213 227 243 244 230 218 222 233 236 226 214 216 216 221 251
179 196 201 195 197 196 207 227 230 215 222 226 225 223 230 258 250 225 200 201 219 236 235 225 216 224 226 193 182 210 247 266 254 227 230 240 241 234 206 181 189 202 252
225 218 207 194 194 207 216 218 219 222 230 231 238 233 229 245 248 226 197 192 212 236 246 234 220 218 214 191 188 199 226 251 258 272 273 272 261 244 210 203 205 210 227
229 254 246 210 201 208 216 214 206 219 227 229 238 246 239 241 242 226 203 196 206 218 235 243 238 217 216 212 206 210 220 220 214 231 261 276 286 279 252 225 218 209 215
162 119 274 265 235 199 199 217 206 203 213 236 240 252 252 246 240 239 222 212 206 206 229 236 233 215 220 220 214 221 218 201 186 199 242 266 272 277 279 267 240 227 228
82 300 302 349 359 32 192 217 229 210 212 240 238 243 258 254 242 236 229 222 208 205 223 223 227 219 217 222 216 207 195 181 178 203 236 252 256 263 279 292 276 242 244
104 314 345 51 359 360 350 239 220 230 231 245 247 251 255 255 246 235 237 231 218 216 223 207 194 198 202 211 203 195 194 194 199 219 240 255 262 261 267 270 277 284 286
242 281 295 263 273 340 322 257 239 239 218 223 239 236 235 248 247 228 216 223 221 207 167 126 128 168 215 223 226 222 208 201 215 229 234 250 262 265 268 250 239 231 238
177 242 236 224 259 284 306 325 323 262 258 235 237 232 233 235 232 201 204 206 187 148 138 158 198 222 232 232 233 240 236 232 232 236 242 244 249 254 261 248 219 227 247
185 219 230 230 235 257 270 276 308 332 345 313 277 247 229 228 207 186 178 151 133 137 137 186 217 231 242 241 237 236 242 247 234 229 242 249 250 252 249 251 241 237 250
169 204 220 233 245 247 244 240 238 263 317 321 327 330 248 171 165 152 135 118 103 131 189 214 234 242 245 245 244 247 255 259 248 241 245 251 247 244 246 249 246 247 255
182 214 234 258 260 257 258 255 253 242 242 274 320 338 24 127 134 135 134 127 155 212 236 245 252 251 252 254 254 251 251 253 259 254 250 252 250 243 248 253 255 252 249
239 242 245 264 295 296 271 259 253 237 243 247 263 265 161 107 105 133 156 180 208 232 241 248 256 258 261 264 265 264 264 265 267 267 266 262 257 250 250 255 256 255 251
241 245 238 266 266 268 259 257 253 235 236 247 261 255 182 181 201 207 207 217 231 238 238 243 254 262 262 263 261 262 264 266 264 263 264 262 262 262 259 256 256 255 256
220 230 238 247 260 263 254 246 242 230 231 241 265 267 179 188 206 215 228 239 242 242 243 241 250 255 254 255 255 258 262 265 265 265 264 264 260 258 260 260 259 260 257
205 216 242 260 257 252 248 240 230 226 236 250 247 202 179 218 230 230 237 250 256 258 259 253 259 271 269 256 247 246 251 256 256 255 257 263 263 259 256 257 260 263 261
212 218 228 246 256 248 244 240 239 235 233 233 235 223 213 221 241 256 260 263 264 268 272 272 270 274 279 282 270 259 260 267 267 256 250 252 257 260 257 259 262 263 263
210 225 228 237 246 255 257 249 242 242 243 244 245 249 252 258 264 271 276 279 283 285 287 285 282 283 288 293 291 288 291 282 275 272 258 250 253 257 259 263 265 267 265
207 221 229 227 238 246 241 237 244 253 252 260 269 274 271 272 275 277 276 288 298 302 305 302 297 295 300 301 307 317 316 311 305 283 267 255 255 261 269 268 273 275 273